This is the latest recevied weather packets stored in our database for station/object WD9GET. If no packets are shown the sender has not sent any weather packets the latest 10 day(s).
| Time | Temp. | Humidity | Pressure | Rain* | Wind** | Luminosity | Snow |
|---|---|---|---|---|---|---|---|
| 1778340684 | 25.56° C | 95% | 1010.1 hPa | 0 mm | - | 327 W/m² | - |
| 1778340611 | 25.56° C | 95% | 1010 hPa | 0 mm | - | 311 W/m² | - |
| 1778340550 | 25.56° C | 95% | 1010 hPa | 0 mm | - | 311 W/m² | - |
| 1778340465 | 25.56° C | 95% | 1009.9 hPa | 0 mm | - | 302 W/m² | - |
| 1778340405 | 25.56° C | 95% | 1009.9 hPa | 0 mm | - | 294 W/m² | - |
| 1778340340 | 25° C | 95% | 1009.8 hPa | 0 mm | - | 284 W/m² | - |
| 1778340280 | 25° C | 96% | 1009.8 hPa | 0 mm | - | 275 W/m² | - |
| 1778340220 | 25° C | 96% | 1009.8 hPa | 0 mm | - | 269 W/m² | - |
| 1778340171 | 25° C | 96% | 1009.8 hPa | 0 mm | - | 263 W/m² | - |
| 1778340165 | 25° C | 96% | 1009.7 hPa | 0 mm | - | 260 W/m² | - |
| 1778340040 | 25° C | 97% | 1009.7 hPa | 0 mm | - | 258 W/m² | - |
| 1778339981 | 25° C | 96% | 1009.6 hPa | 0 mm | - | 257 W/m² | - |
| 1778339920 | 25° C | 97% | 1009.6 hPa | 0 mm | - | 257 W/m² | - |
| 1778339860 | 25° C | 97% | 1009.6 hPa | 0 mm | - | 259 W/m² | - |
| 1778339804 | 25° C | 97% | 1009.6 hPa | 0 mm | - | 262 W/m² | - |
| 1778339740 | 25° C | 97% | 1009.6 hPa | 0 mm | - | 262 W/m² | - |
| 1778339680 | 25° C | 98% | 1009.5 hPa | 0 mm | - | 260 W/m² | - |
| 1778339620 | 25° C | 98% | 1009.5 hPa | 0 mm | - | 260 W/m² | - |
| 1778339561 | 25° C | 98% | 1009.6 hPa | 0 mm | - | 256 W/m² | - |
| 1778339504 | 24.44° C | 98% | 1009.6 hPa | 0 mm | - | 251 W/m² | - |
| 1778339425 | 24.44° C | 98% | 1009.8 hPa | 0 mm | - | 235 W/m² | - |
| 1778339365 | 24.44° C | 98% | 1009.8 hPa | 0 mm | - | 235 W/m² | - |
| 1778339305 | 24.44° C | 98% | 1009.9 hPa | 0 mm | - | 225 W/m² | - |
| 1778339249 | 24.44° C | 99% | 1010.1 hPa | 0 mm | - | 200 W/m² | - |
| 1778339189 | 24.44° C | 99% | 1010.2 hPa | 0 mm | - | 182 W/m² | - |
* Rain latest hour (hover to see other rain measurements)
** Current wind speed in m/s (hover to see current wind gust speed)